• In Hungary
  • List of Countries
  • For 7 days
  • Water Temperature
  • Satellite Maps
  • Weather Map
  • News
  • Weather Widgets
  • user-avatar
    Login

    Hourly Weather Sterkow

    Today, 23 September, Sunday

    Time Temperature Precipitation Wind Pressure Humidity
    00:00 +12°C° 0.1 mm 3 mps 751 mmHg 69%
    01:00 +12°C° 0 mm 3 mps 750 mmHg 73%
    02:00 +11°C° 0.1 mm 3 mps 750 mmHg 76%
    03:00 +11°C° 0.1 mm 3 mps 750 mmHg 80%
    04:00 +11°C° 0.1 mm 3 mps 750 mmHg 83%
    05:00 +11°C° 0 mm 3 mps 750 mmHg 83%
    06:00 +11°C° 0 mm 3 mps 750 mmHg 83%
    07:00 +11°C° 0 mm 3 mps 749 mmHg 81%
    08:00 +12°C° 0 mm 3 mps 749 mmHg 75%
    09:00 +13°C° 0 mm 3 mps 749 mmHg 69%
    10:00 +14°C° 0 mm 3 mps 749 mmHg 62%
    11:00 +14°C° 0.4 mm 2 mps 748 mmHg 67%
    12:00 +14°C° 0.4 mm 2 mps 748 mmHg 72%
    13:00 +13°C° 0.4 mm 2 mps 747 mmHg 77%
    14:00 +13°C° 1.8 mm 2 mps 746 mmHg 81%
    15:00 +12°C° 1.8 mm 2 mps 744 mmHg 86%
    16:00 +11°C° 1.8 mm 3 mps 743 mmHg 91%
    17:00 +10°C° 6.3 mm 4 mps 742 mmHg 92%
    18:00 +9°C° 6.3 mm 5 mps 741 mmHg 92%
    19:00 +8°C° 6.3 mm 6 mps 740 mmHg 93%
    20:00 +8°C° 1 mm 6 mps 741 mmHg 92%
    21:00 +8°C° 1 mm 5 mps 741 mmHg 91%
    22:00 +8°C° 1 mm 5 mps 742 mmHg 90%
    23:00 +8°C° 0.9 mm 5 mps 743 mmHg 89%

    Tomorrow, 24 September, Monday

    Time Temperature Precipitation Wind Pressure Humidity
    00:00 +8°C° 0.9 mm 5 mps 745 mmHg 88%
    01:00 +8°C° 0.9 mm 5 mps 746 mmHg 87%
    02:00 +8°C° 0.1 mm 6 mps 747 mmHg 87%
    03:00 +8°C° 0.1 mm 6 mps 748 mmHg 86%
    04:00 +8°C° 0.1 mm 6 mps 750 mmHg 86%
    05:00 +7°C° 0 mm 6 mps 750 mmHg 85%
    06:00 +6°C° 0 mm 7 mps 751 mmHg 83%
    07:00 +6°C° 0 mm 7 mps 751 mmHg 82%
    08:00 +6°C° 0.1 mm 7 mps 752 mmHg 77%
    09:00 +7°C° 0.1 mm 8 mps 753 mmHg 71%
    10:00 +9°C° 0.1 mm 8 mps 753 mmHg 66%
    11:00 +10°C° 0.1 mm 8 mps 754 mmHg 59%
    12:00 +11°C° 0.1 mm 9 mps 754 mmHg 52%
    13:00 +12°C° 0.1 mm 9 mps 754 mmHg 46%
    14:00 +11°C° 0.1 mm 8 mps 755 mmHg 45%
    15:00 +11°C° 0.1 mm 8 mps 755 mmHg 45%
    16:00 +11°C° 0.1 mm 7 mps 755 mmHg 44%
    17:00 +10°C° 0 mm 6 mps 756 mmHg 49%
    18:00 +9°C° 0 mm 6 mps 757 mmHg 53%
    19:00 +8°C° 0 mm 5 mps 757 mmHg 58%
    20:00 +7°C° 0 mm 4 mps 758 mmHg 60%
    21:00 +7°C° 0 mm 4 mps 759 mmHg 62%
    22:00 +6°C° 0 mm 4 mps 759 mmHg 64%
    23:00 +6°C° 0 mm 4 mps 760 mmHg 66%

    Day after tomorrow, 25 September, Tuesday

    Time Temperature Precipitation Wind Pressure Humidity
    00:00 +6°C° 0 mm 4 mps 760 mmHg 67%
    01:00 +5°C° 0 mm 4 mps 761 mmHg 69%
    02:00 +5°C° 0 mm 4 mps 761 mmHg 71%
    03:00 +5°C° 0 mm 4 mps 761 mmHg 73%
    04:00 +5°C° 0 mm 4 mps 762 mmHg 75%
    05:00 +5°C° 0 mm 4 mps 762 mmHg 75%
    06:00 +5°C° 0 mm 4 mps 763 mmHg 76%
    07:00 +5°C° 0 mm 4 mps 763 mmHg 76%
    08:00 +7°C° 0 mm 4 mps 763 mmHg 69%
    09:00 +8°C° 0 mm 4 mps 764 mmHg 61%
    10:00 +11°C° 0 mm 4 mps 764 mmHg 54%
    11:00 +12°C° 0 mm 4 mps 764 mmHg 50%
    12:00 +12°C° 0 mm 4 mps 764 mmHg 47%
    13:00 +13°C° 0 mm 4 mps 764 mmHg 44%
    14:00 +13°C° 0 mm 4 mps 764 mmHg 44%
    15:00 +13°C° 0 mm 3 mps 764 mmHg 44%
    16:00 +13°C° 0 mm 3 mps 764 mmHg 44%
    17:00 +11°C° 0 mm 3 mps 764 mmHg 50%
    18:00 +10°C° 0 mm 2 mps 764 mmHg 55%
    19:00 +9°C° 0 mm 1 mps 765 mmHg 61%
    20:00 +9°C° 0 mm 1 mps 765 mmHg 63%
    21:00 +8°C° 0 mm 1 mps 765 mmHg 65%
    22:00 +8°C° 0 mm 1 mps 765 mmHg 67%
    23:00 +7°C° 0 mm 2 mps 765 mmHg 69%

    26 September, Wednesday

    Time Temperature Precipitation Wind Pressure Humidity
    00:00 +6°C° 0 mm 2 mps 765 mmHg 71%
    01:00 +6°C° 0 mm 2 mps 765 mmHg 72%
    02:00 +6°C° 0 mm 2 mps 765 mmHg 74%
    03:00 +6°C° 0 mm 2 mps 764 mmHg 75%
    04:00 +5°C° 0 mm 2 mps 764 mmHg 76%
    05:00 +6°C° 0 mm 2 mps 764 mmHg 74%
    06:00 +6°C° 0 mm 2 mps 764 mmHg 72%
    07:00 +7°C° 0 mm 3 mps 763 mmHg 70%
    08:00 +9°C° 0 mm 3 mps 763 mmHg 63%
    09:00 +11°C° 0 mm 4 mps 763 mmHg 56%
    10:00 +13°C° 0 mm 4 mps 763 mmHg 48%
    11:00 +13°C° 0 mm 4 mps 762 mmHg 46%
    12:00 +14°C° 0 mm 4 mps 762 mmHg 43%
    13:00 +15°C° 0 mm 5 mps 761 mmHg 40%
    14:00 +15°C° 0 mm 4 mps 761 mmHg 41%
    15:00 +15°C° 0 mm 4 mps 760 mmHg 43%
    16:00 +15°C° 0 mm 4 mps 759 mmHg 44%
    17:00 +14°C° 0 mm 4 mps 759 mmHg 47%
    18:00 +13°C° 0 mm 4 mps 759 mmHg 51%
    19:00 +12°C° 0 mm 4 mps 759 mmHg 54%
    20:00 +12°C° 0 mm 4 mps 759 mmHg 54%
    21:00 +12°C° 0 mm 4 mps 759 mmHg 54%
    22:00 +12°C° 0 mm 4 mps 758 mmHg 54%
    23:00 +12°C° 0 mm 5 mps 758 mmHg 54%

    27 September, Thursday

    Time Temperature Precipitation Wind Pressure Humidity
    00:00 +12°C° 0 mm 5 mps 758 mmHg 55%
    01:00 +12°C° 0 mm 5 mps 758 mmHg 55%
    02:00 +12°C° 0 mm 5 mps 758 mmHg 56%
    03:00 +12°C° 0 mm 5 mps 758 mmHg 57%
    04:00 +12°C° 0 mm 5 mps 757 mmHg 58%
    05:00 +12°C° 0 mm 5 mps 758 mmHg 59%
    06:00 +12°C° 0 mm 5 mps 758 mmHg 60%
    07:00 +10°C° 0 mm 5 mps 758 mmHg 61%
    08:00 +13°C° 0 mm 5 mps 758 mmHg 58%
    09:00 +15°C° 0 mm 5 mps 758 mmHg 56%
    10:00 +17°C° 0 mm 5 mps 758 mmHg 54%
    11:00 +19°C° 0 mm 5 mps 757 mmHg 53%
    12:00 +20°C° 0 mm 5 mps 757 mmHg 53%
    13:00 +22°C° 0 mm 5 mps 757 mmHg 52%
    14:00 +22°C° 0 mm 4 mps 756 mmHg 53%
    15:00 +22°C° 0 mm 4 mps 756 mmHg 53%
    16:00 +22°C° 0 mm 4 mps 755 mmHg 54%
    17:00 +20°C° 0 mm 3 mps 755 mmHg 59%
    18:00 +18°C° 0 mm 3 mps 755 mmHg 64%
    19:00 +17°C° 0 mm 2 mps 755 mmHg 69%
    20:00 +16°C° 0 mm 2 mps 755 mmHg 69%
    21:00 +16°C° 0 mm 2 mps 754 mmHg 69%
    22:00 +14°C° 0 mm 3 mps 754 mmHg 69%
    23:00 +14°C° 0 mm 3 mps 754 mmHg 69%

    28 September, Friday

    Time Temperature Precipitation Wind Pressure Humidity
    00:00 +14°C° 0 mm 3 mps 753 mmHg 70%
    01:00 +13°C° 0 mm 3 mps 753 mmHg 71%
    02:00 +13°C° 0 mm 3 mps 753 mmHg 71%
    03:00 +13°C° 0 mm 3 mps 753 mmHg 72%
    04:00 +12°C° 0 mm 3 mps 752 mmHg 72%
    05:00 +12°C° 0 mm 3 mps 752 mmHg 72%
    06:00 +12°C° 0 mm 3 mps 752 mmHg 72%
    07:00 +12°C° 0 mm 3 mps 752 mmHg 72%
    08:00 +15°C° 0 mm 2 mps 752 mmHg 68%
    09:00 +16°C° 0 mm 2 mps 753 mmHg 64%
    10:00 +18°C° 0 mm 2 mps 753 mmHg 60%
    11:00 +18°C° 0 mm 2 mps 753 mmHg 60%
    12:00 +19°C° 0 mm 2 mps 753 mmHg 60%
    13:00 +19°C° 0 mm 3 mps 753 mmHg 60%
    14:00 +18°C° 0 mm 3 mps 753 mmHg 63%
    15:00 +18°C° 0 mm 3 mps 753 mmHg 65%
    16:00 +17°C° 0 mm 3 mps 753 mmHg 68%
    17:00 +16°C° 0 mm 2 mps 753 mmHg 70%
    18:00 +15°C° 0 mm 2 mps 753 mmHg 73%
    19:00 +14°C° 0 mm 2 mps 754 mmHg 75%
    20:00 +14°C° 0 mm 2 mps 754 mmHg 73%
    21:00 +14°C° 0 mm 2 mps 754 mmHg 71%
    22:00 +14°C° 0 mm 2 mps 755 mmHg 69%
    23:00 +13°C° 0 mm 2 mps 755 mmHg 69%
    Show more